THY2GF KJFK-LTFM

Flight info

Callsign THY2GF
Flight time 8h 50m
Altitude 37000
Route MERIT DCT HFD DCT PUT DCT WITCH DCT ALLEX N431B ELSIR/M082F390 DCT 50N050W 52N040W 54N030W 55N020W DCT RESNO DCT NETKI/N0466F390 DCT BOFUM Q37 MALUD UL975 WAL M16 DOLAS DCT NAVPI DCT OTMEC DCT TIVUN/N0474F410 DCT ESAMA DCT OSBIT DCT TENLO DCT LAMSI DCT BARUG DCT SASAL DCT BABIT DCT KOTUS DCT ETIDA T390 RILEX
Aircraft B772/H-SDE2E3FGHIJ5LORVWXY/LB1D1

Departure

Time 2026-05-04 10:27
Airport John F. Kennedy International Airport (KJFK)

Arrival

Time 2026-05-04 19:18
Airport İstanbul Airport (LTFM)
Time Latitude Longitude Altitude Speed Heading
2026-05-04 10:04 40.63905 -73.78037 22 ft 0 kts 263°
2026-05-04 10:16 40.63928 -73.77957 22 ft 2 kts 213°
2026-05-04 10:16 40.63941 -73.77949 22 ft 2 kts 196°
2026-05-04 10:16 40.63956 -73.77945 22 ft 2 kts 179°
2026-05-04 10:16 40.63964 -73.77946 22 ft 1 kts 172°
2026-05-04 10:17 40.63965 -73.77946 22 ft 0 kts 172°
2026-05-04 10:19 40.63941 -73.77941 22 ft 7 kts 172°
2026-05-04 10:19 40.63862 -73.77927 22 ft 13 kts 172°
2026-05-04 10:20 40.63770 -73.77911 22 ft 13 kts 172°
2026-05-04 10:20 40.63680 -73.77897 22 ft 13 kts 174°
2026-05-04 10:20 40.63588 -73.77874 20 ft 14 kts 152°
2026-05-04 10:20 40.63576 -73.77773 21 ft 13 kts 35°
2026-05-04 10:21 40.63652 -73.77713 21 ft 13 kts 31°
2026-05-04 10:21 40.63731 -73.77651 22 ft 13 kts 31°
2026-05-04 10:21 40.63812 -73.77587 22 ft 13 kts 30°
2026-05-04 10:21 40.63896 -73.77523 22 ft 14 kts 30°
2026-05-04 10:22 40.64070 -73.77389 22 ft 15 kts 31°
2026-05-04 10:22 40.64167 -73.77312 21 ft 17 kts 31°
2026-05-04 10:22 40.64280 -73.77223 22 ft 19 kts 31°
2026-05-04 10:23 40.64396 -73.77132 22 ft 19 kts 30°
2026-05-04 10:23 40.64520 -73.77087 21 ft 18 kts 358°
2026-05-04 10:25 40.64921 -73.76862 22 ft 13 kts 104°
2026-05-04 10:25 40.64876 -73.76755 22 ft 13 kts 120°
2026-05-04 10:25 40.64862 -73.76703 22 ft 5 kts 63°
2026-05-04 10:25 40.64923 -73.76651 22 ft 13 kts 30°
2026-05-04 10:26 40.65021 -73.76580 22 ft 17 kts 28°
2026-05-04 10:26 40.65098 -73.76476 22 ft 16 kts 97°
2026-05-04 10:26 40.65039 -73.76358 22 ft 10 kts 158°
2026-05-04 10:26 40.64987 -73.76386 22 ft 6 kts 210°
2026-05-04 10:27 40.64913 -73.76442 22 ft 27 kts 210°
2026-05-04 10:27 40.64534 -73.76751 22 ft 98 kts 207°
2026-05-04 10:27 40.63770 -73.77348 62 ft 150 kts 214°
2026-05-04 10:27 40.62878 -73.78038 754 ft 150 kts 214°
2026-05-04 10:28 40.61951 -73.78734 1329 ft 154 kts 214°
2026-05-04 10:28 40.60984 -73.79488 1571 ft 173 kts 205°
2026-05-04 10:28 40.59712 -73.79562 1877 ft 201 kts 168°
2026-05-04 10:28 40.58430 -73.78558 2179 ft 228 kts 141°
2026-05-04 10:29 40.57536 -73.76734 2576 ft 253 kts 109°
2026-05-04 10:29 40.57407 -73.74363 2950 ft 272 kts 77°
2026-05-04 10:29 40.58216 -73.72119 3486 ft 277 kts 45°
2026-05-04 10:29 40.59732 -73.70609 4033 ft 278 kts 25°
2026-05-04 10:30 40.61410 -73.69388 4791 ft 277 kts 24°
2026-05-04 10:30 40.63107 -73.68173 5457 ft 280 kts 24°
2026-05-04 10:30 40.64834 -73.66939 6108 ft 283 kts 24°
2026-05-04 10:30 40.66566 -73.65700 6766 ft 286 kts 24°
2026-05-04 10:31 40.68317 -73.64446 7416 ft 288 kts 24°
2026-05-04 10:31 40.70101 -73.63168 8068 ft 291 kts 24°
2026-05-04 10:32 40.81267 -73.55160 10818 ft 338 kts 24°
2026-05-04 10:33 40.83395 -73.53632 11013 ft 353 kts 24°
2026-05-04 10:33 40.85593 -73.52052 11186 ft 367 kts 24°
2026-05-04 10:33 40.87882 -73.50404 11343 ft 380 kts 24°
2026-05-04 10:33 40.90218 -73.48719 11626 ft 388 kts 24°
2026-05-04 10:34 40.92606 -73.46993 12059 ft 392 kts 24°
2026-05-04 10:34 40.95027 -73.45242 12511 ft 395 kts 24°
2026-05-04 10:34 40.97438 -73.43496 12957 ft 398 kts 24°
2026-05-04 10:34 40.99885 -73.41723 13412 ft 401 kts 24°
2026-05-04 10:35 41.02367 -73.39922 13871 ft 404 kts 24°
2026-05-04 10:35 41.04880 -73.38097 14356 ft 407 kts 24°
2026-05-04 10:35 41.07362 -73.36294 14843 ft 409 kts 24°
2026-05-04 10:35 41.09876 -73.34465 15322 ft 411 kts 25°
2026-05-04 10:36 41.12392 -73.32632 15758 ft 414 kts 25°
2026-05-04 10:36 41.14945 -73.30772 16211 ft 416 kts 25°
2026-05-04 10:36 41.17492 -73.28915 16692 ft 418 kts 25°
2026-05-04 10:36 41.20048 -73.27048 17140 ft 420 kts 24°
2026-05-04 10:37 41.22607 -73.25178 17580 ft 422 kts 24°
2026-05-04 10:37 41.25174 -73.23300 18009 ft 425 kts 24°
2026-05-04 10:37 41.27775 -73.21394 18499 ft 426 kts 24°
2026-05-04 10:37 41.30375 -73.19488 18973 ft 427 kts 24°
2026-05-04 10:39 41.43261 -73.02324 21248 ft 463 kts 56°
2026-05-04 10:39 41.44897 -72.98614 21684 ft 465 kts 56°
2026-05-04 10:39 41.46520 -72.94931 22066 ft 468 kts 56°
2026-05-04 10:40 41.48169 -72.91184 22414 ft 471 kts 56°
2026-05-04 10:40 41.49855 -72.87352 22781 ft 474 kts 56°
2026-05-04 10:40 41.51517 -72.83568 23147 ft 477 kts 56°
2026-05-04 10:40 41.53198 -72.79736 23512 ft 480 kts 56°
2026-05-04 10:41 41.54885 -72.75887 23879 ft 483 kts 56°
2026-05-04 10:41 41.56589 -72.71991 24273 ft 485 kts 56°
2026-05-04 10:41 41.58299 -72.68080 24661 ft 487 kts 56°
2026-05-04 10:41 41.59999 -72.64185 25014 ft 490 kts 56°
2026-05-04 10:42 41.61704 -72.60275 25365 ft 493 kts 56°
2026-05-04 10:42 41.63448 -72.56270 25728 ft 496 kts 56°
2026-05-04 10:42 41.65194 -72.52292 26084 ft 498 kts 55°
2026-05-04 10:42 41.66974 -72.48353 26431 ft 500 kts 55°
2026-05-04 10:43 41.68763 -72.44398 26771 ft 503 kts 55°
2026-05-04 10:44 41.81550 -72.15926 29041 ft 516 kts 56°
2026-05-04 10:45 41.83408 -72.11763 29319 ft 518 kts 56°
2026-05-04 10:45 41.85242 -72.07647 29682 ft 518 kts 56°
2026-05-04 10:45 41.87086 -72.03500 30091 ft 516 kts 56°
2026-05-04 10:45 41.88907 -71.99402 30478 ft 516 kts 56°
2026-05-04 10:46 41.90749 -71.95249 30846 ft 515 kts 56°
2026-05-04 10:46 41.92570 -71.91139 31184 ft 515 kts 56°
2026-05-04 10:46 41.94427 -71.87007 31503 ft 514 kts 53°
2026-05-04 10:46 41.96572 -71.83236 31810 ft 510 kts 44°
2026-05-04 10:47 41.99045 -71.79836 32163 ft 507 kts 40°
2026-05-04 10:47 42.01579 -71.76520 32511 ft 507 kts 39°
2026-05-04 10:47 42.04088 -71.73244 32840 ft 507 kts 39°
2026-05-04 10:47 42.06623 -71.69930 33134 ft 509 kts 39°
2026-05-04 10:49 42.24371 -71.46602 35400 ft 510 kts 40°
2026-05-04 10:49 42.26932 -71.43219 35699 ft 510 kts 40°
2026-05-04 10:50 42.29464 -71.39870 36003 ft 509 kts 40°
2026-05-04 10:51 42.47231 -71.16257 37003 ft 512 kts 41°
2026-05-04 10:52 42.49748 -71.12894 37008 ft 511 kts 41°
2026-05-04 10:52 42.54821 -71.06107 37033 ft 512 kts 41°
2026-05-04 10:54 42.71593 -70.81084 37029 ft 518 kts 54°
2026-05-04 10:54 42.73559 -70.76959 37029 ft 518 kts 54°
2026-05-04 10:56 42.89112 -70.44060 37004 ft 515 kts 54°
2026-05-04 10:57 42.92970 -70.35841 37005 ft 515 kts 54°
2026-05-04 10:57 42.96829 -70.27596 36996 ft 515 kts 55°
2026-05-04 10:58 43.00680 -70.19344 36998 ft 516 kts 55°
2026-05-04 10:58 43.04547 -70.11038 36997 ft 516 kts 55°
2026-05-04 10:59 43.08385 -70.02767 36996 ft 516 kts 55°
2026-05-04 10:59 43.12217 -69.94489 36985 ft 516 kts 55°
2026-05-04 11:00 43.16044 -69.86196 36992 ft 516 kts 55°
2026-05-04 11:02 43.31397 -69.52694 36995 ft 515 kts 55°
2026-05-04 11:05 43.59792 -68.89704 36985 ft 517 kts 56°
2026-05-04 11:06 43.63557 -68.81247 36986 ft 517 kts 56°
2026-05-04 11:06 43.67339 -68.72728 36986 ft 518 kts 56°
2026-05-04 11:10 43.93167 -68.13876 36970 ft 512 kts 57°
2026-05-04 11:12 44.07814 -67.79960 36973 ft 512 kts 57°
2026-05-04 11:12 44.11491 -67.71383 36972 ft 513 kts 57°
2026-05-04 11:13 44.15131 -67.62865 36973 ft 513 kts 57°
2026-05-04 11:13 44.18799 -67.54258 36974 ft 513 kts 57°
2026-05-04 11:14 44.22433 -67.45705 36975 ft 513 kts 57°
2026-05-04 11:16 44.36895 -67.11409 36914 ft 512 kts 58°
2026-05-04 11:16 44.40494 -67.02807 36914 ft 512 kts 58°
2026-05-04 11:17 44.44154 -66.94273 36915 ft 512 kts 57°
2026-05-04 11:19 44.59171 -66.60141 36917 ft 514 kts 57°
2026-05-04 11:19 44.62899 -66.51585 36918 ft 514 kts 57°
2026-05-04 11:20 44.66037 -66.44366 36919 ft 518 kts 57°
2026-05-04 11:20 44.70419 -66.34248 36914 ft 526 kts 58°
2026-05-04 11:22 44.85740 -65.98583 36909 ft 532 kts 58°
2026-05-04 11:23 44.89561 -65.89616 36883 ft 533 kts 58°
2026-05-04 11:25 45.02868 -65.58171 36876 ft 533 kts 58°
2026-05-04 11:25 45.06676 -65.49106 36876 ft 533 kts 58°
2026-05-04 11:27 45.23665 -65.08312 36857 ft 536 kts 59°
2026-05-04 11:28 45.27428 -64.99197 36858 ft 536 kts 58°
2026-05-04 11:28 45.31169 -64.90103 36858 ft 536 kts 58°
2026-05-04 11:29 45.34929 -64.80936 36847 ft 536 kts 58°
2026-05-04 11:29 45.38640 -64.71856 36838 ft 536 kts 59°
2026-05-04 11:33 45.64709 -64.07228 36764 ft 541 kts 59°
2026-05-04 11:33 45.68432 -63.97872 36765 ft 541 kts 59°
2026-05-04 11:34 45.72138 -63.88533 36765 ft 541 kts 59°
2026-05-04 11:34 45.75838 -63.79172 36768 ft 540 kts 59°
2026-05-04 11:35 45.79494 -63.69893 36766 ft 536 kts 59°
2026-05-04 11:35 45.83142 -63.60601 36752 ft 538 kts 59°
2026-05-04 11:36 45.86810 -63.51229 36735 ft 538 kts 59°
2026-05-04 11:36 45.90440 -63.41920 36672 ft 538 kts 59°
2026-05-04 11:37 45.94087 -63.32540 36667 ft 538 kts 60°
2026-05-04 11:37 45.97722 -63.23154 36665 ft 538 kts 60°
2026-05-04 11:38 46.01357 -63.13739 36667 ft 539 kts 60°
2026-05-04 11:38 46.04986 -63.04306 36668 ft 539 kts 60°
2026-05-04 11:39 46.08583 -62.94923 36668 ft 539 kts 60°
2026-05-04 11:41 46.21195 -62.61772 36638 ft 540 kts 61°
2026-05-04 11:41 46.24789 -62.52249 36638 ft 540 kts 61°
2026-05-04 11:42 46.28360 -62.42755 36637 ft 535 kts 61°
2026-05-04 11:42 46.31879 -62.33365 36637 ft 535 kts 62°
2026-05-04 11:43 46.35406 -62.23920 36635 ft 535 kts 62°
2026-05-04 11:43 46.38950 -62.14399 36585 ft 537 kts 62°
2026-05-04 11:44 46.42468 -62.04913 36584 ft 537 kts 62°
2026-05-04 11:44 46.45990 -61.95383 36584 ft 538 kts 62°
2026-05-04 11:45 46.49512 -61.85820 36585 ft 538 kts 62°
2026-05-04 11:45 46.53018 -61.76266 36585 ft 538 kts 62°
2026-05-04 11:46 46.56503 -61.66735 36586 ft 539 kts 63°
2026-05-04 11:46 46.60004 -61.57127 36586 ft 539 kts 63°
2026-05-04 11:47 46.63512 -61.47464 36539 ft 540 kts 63°
2026-05-04 11:47 46.66993 -61.37841 36503 ft 541 kts 63°
2026-05-04 11:48 46.70489 -61.28142 36499 ft 541 kts 63°
2026-05-04 11:48 46.73960 -61.18475 36500 ft 541 kts 64°
2026-05-04 11:49 46.77441 -61.08746 36501 ft 540 kts 64°
2026-05-04 11:49 46.80878 -60.99108 36471 ft 538 kts 64°
2026-05-04 11:50 46.84332 -60.89381 36364 ft 539 kts 64°
2026-05-04 11:50 46.87759 -60.79699 36337 ft 538 kts 64°
2026-05-04 11:51 46.91172 -60.70020 36317 ft 538 kts 64°
2026-05-04 11:51 46.94590 -60.60290 36271 ft 539 kts 64°
2026-05-04 11:52 46.98019 -60.50495 36271 ft 539 kts 64°
2026-05-04 11:52 47.01417 -60.40752 36271 ft 539 kts 64°
2026-05-04 11:53 47.04796 -60.31027 36270 ft 539 kts 65°
2026-05-04 11:53 47.08180 -60.21250 36261 ft 539 kts 65°
2026-05-04 11:55 47.21599 -59.82119 36409 ft 536 kts 65°
2026-05-04 11:56 47.24942 -59.72280 36413 ft 537 kts 66°
2026-05-04 11:56 47.28265 -59.62462 36412 ft 536 kts 66°
2026-05-04 11:57 47.31567 -59.52670 36412 ft 535 kts 66°
2026-05-04 11:57 47.34835 -59.42939 36413 ft 534 kts 66°
2026-05-04 11:58 47.38131 -59.33088 36413 ft 534 kts 67°
2026-05-04 11:58 47.41387 -59.23322 36412 ft 533 kts 67°
2026-05-04 11:59 47.44655 -59.13483 36413 ft 533 kts 67°
2026-05-04 11:59 47.47915 -59.03630 36414 ft 533 kts 67°
2026-05-04 12:00 47.51141 -58.93840 36414 ft 533 kts 67°
2026-05-04 12:00 47.54379 -58.83977 36414 ft 533 kts 67°
2026-05-04 12:01 47.57604 -58.74113 36415 ft 535 kts 66°
2026-05-04 12:02 47.68898 -58.39281 36443 ft 537 kts 66°
2026-05-04 12:03 47.72094 -58.29337 36503 ft 536 kts 67°
2026-05-04 12:03 47.75281 -58.19377 36504 ft 536 kts 68°
2026-05-04 12:04 47.78477 -58.09356 36506 ft 538 kts 68°
2026-05-04 12:04 47.81666 -57.99313 36506 ft 539 kts 68°
2026-05-04 12:05 47.84858 -57.89222 36506 ft 540 kts 68°
2026-05-04 12:05 47.88047 -57.79099 36507 ft 540 kts 68°
2026-05-04 12:06 47.91230 -57.68958 36508 ft 541 kts 69°
2026-05-04 12:06 47.94389 -57.58851 36512 ft 541 kts 69°
2026-05-04 12:07 47.97561 -57.48661 36510 ft 541 kts 69°
2026-05-04 12:07 48.00708 -57.38506 36510 ft 542 kts 69°
2026-05-04 12:08 48.03855 -57.28316 36512 ft 542 kts 70°
2026-05-04 12:08 48.06998 -57.18095 36510 ft 541 kts 70°
2026-05-04 12:09 48.10140 -57.07834 36510 ft 541 kts 70°
2026-05-04 12:09 48.13250 -56.97637 36500 ft 540 kts 70°
2026-05-04 12:10 48.16369 -56.87367 36490 ft 540 kts 70°
2026-05-04 12:10 48.19470 -56.77113 36501 ft 539 kts 70°
2026-05-04 12:11 48.22553 -56.66878 36502 ft 539 kts 70°
2026-05-04 12:11 48.25623 -56.56640 36504 ft 539 kts 70°
2026-05-04 12:12 48.28690 -56.46375 36502 ft 536 kts 70°
2026-05-04 12:12 48.31701 -56.36253 36503 ft 535 kts 70°
2026-05-04 12:14 48.43726 -55.95399 36505 ft 534 kts 71°
2026-05-04 12:15 48.46728 -55.85097 36570 ft 533 kts 71°
2026-05-04 12:15 48.49681 -55.74914 36581 ft 533 kts 71°
2026-05-04 12:16 48.52647 -55.64642 36582 ft 534 kts 71°
2026-05-04 12:16 48.55595 -55.54392 36582 ft 535 kts 71°
2026-05-04 12:17 48.58544 -55.44095 36583 ft 535 kts 71°
2026-05-04 12:17 48.61498 -55.33738 36583 ft 536 kts 72°
2026-05-04 12:18 48.64431 -55.23409 36583 ft 536 kts 72°
2026-05-04 12:18 48.67345 -55.13100 36584 ft 536 kts 72°
2026-05-04 12:19 48.70274 -55.02697 36584 ft 536 kts 72°
2026-05-04 12:19 48.73190 -54.92292 36585 ft 536 kts 72°
2026-05-04 12:20 48.76080 -54.81937 36588 ft 534 kts 72°
2026-05-04 12:20 48.78931 -54.71682 36586 ft 528 kts 73°
2026-05-04 12:21 48.81776 -54.61393 36586 ft 529 kts 73°
2026-05-04 12:21 48.84607 -54.51111 36587 ft 529 kts 73°
2026-05-04 12:22 48.87423 -54.40844 36587 ft 529 kts 73°
2026-05-04 12:22 48.90232 -54.30552 36588 ft 528 kts 74°
2026-05-04 12:23 48.93034 -54.20245 36590 ft 527 kts 74°
2026-05-04 12:23 48.95824 -54.09939 36590 ft 526 kts 74°
2026-05-04 12:24 48.98586 -53.99689 36590 ft 526 kts 74°
2026-05-04 12:24 49.01344 -53.89407 36591 ft 526 kts 74°
2026-05-04 12:25 49.04093 -53.79113 36617 ft 526 kts 74°
2026-05-04 12:25 49.06849 -53.68747 36655 ft 526 kts 74°
2026-05-04 12:26 49.09582 -53.58420 36656 ft 525 kts 74°
2026-05-04 12:26 49.12303 -53.48096 36638 ft 525 kts 74°
2026-05-04 12:27 49.15015 -53.37757 36638 ft 525 kts 74°
2026-05-04 12:27 49.17725 -53.27383 36639 ft 524 kts 75°
2026-05-04 12:28 49.20411 -53.17050 36639 ft 524 kts 75°
2026-05-04 12:28 49.23095 -53.06681 36640 ft 524 kts 75°
2026-05-04 12:29 49.25759 -52.96339 36642 ft 523 kts 75°
2026-05-04 12:29 49.28412 -52.85998 36641 ft 521 kts 75°
2026-05-04 12:30 49.31040 -52.75700 36641 ft 521 kts 75°
2026-05-04 12:30 49.33686 -52.65286 36642 ft 522 kts 75°
2026-05-04 12:31 49.36327 -52.54846 36642 ft 522 kts 75°
2026-05-04 12:31 49.38950 -52.44430 36643 ft 522 kts 75°
2026-05-04 12:32 49.42860 -52.28812 36643 ft 521 kts 76°
2026-05-04 12:33 49.45448 -52.18411 36644 ft 524 kts 77°
2026-05-04 12:33 49.48060 -52.07865 36644 ft 524 kts 76°
2026-05-04 12:34 49.50680 -51.97476 36649 ft 526 kts 75°
2026-05-04 12:34 49.52042 -51.92226 36757 ft 527 kts 75°
2026-05-04 12:34 49.53408 -51.86963 36962 ft 526 kts 75°
2026-05-04 12:34 49.54747 -51.81791 37150 ft 526 kts 75°
2026-05-04 12:35 49.56098 -51.76565 37302 ft 526 kts 75°
2026-05-04 12:35 49.57463 -51.71275 37404 ft 527 kts 75°
2026-05-04 12:35 49.58819 -51.66003 37421 ft 531 kts 75°
2026-05-04 12:35 49.60164 -51.60766 37530 ft 531 kts 75°
2026-05-04 12:36 49.61519 -51.55483 37694 ft 531 kts 75°
2026-05-04 12:36 49.62884 -51.50147 37847 ft 530 kts 75°
2026-05-04 12:36 49.64227 -51.44887 37974 ft 531 kts 75°
2026-05-04 12:36 49.65578 -51.39583 38092 ft 531 kts 75°
2026-05-04 12:37 49.66922 -51.34295 38208 ft 531 kts 76°
2026-05-04 12:37 49.68270 -51.28975 38342 ft 531 kts 76°
2026-05-04 12:37 49.69610 -51.23680 38450 ft 531 kts 76°
2026-05-04 12:38 49.72292 -51.13033 38574 ft 533 kts 76°
2026-05-04 12:38 49.74963 -51.02385 38692 ft 532 kts 76°
2026-05-04 12:39 49.77618 -50.91763 38693 ft 525 kts 76°
2026-05-04 12:39 49.80242 -50.81197 38695 ft 525 kts 76°
2026-05-04 12:40 49.82851 -50.70645 38697 ft 523 kts 76°
2026-05-04 12:40 49.85421 -50.60206 38697 ft 521 kts 76°
2026-05-04 12:41 49.87976 -50.49771 38697 ft 521 kts 76°
2026-05-04 12:41 49.90538 -50.39258 38698 ft 521 kts 76°
2026-05-04 12:42 49.93089 -50.28748 38697 ft 520 kts 77°
2026-05-04 12:42 49.95621 -50.18261 38699 ft 521 kts 78°
2026-05-04 12:43 49.98164 -50.07674 38700 ft 523 kts 78°
2026-05-04 12:43 50.00702 -49.97118 38701 ft 524 kts 77°
2026-05-04 12:44 50.03346 -49.86645 38702 ft 524 kts 76°
2026-05-04 12:44 50.06003 -49.76093 38739 ft 524 kts 76°
2026-05-04 12:45 50.08643 -49.65533 38705 ft 528 kts 77°
2026-05-04 12:45 50.11295 -49.54872 38746 ft 528 kts 77°
2026-05-04 12:46 50.13924 -49.44250 38767 ft 528 kts 77°
2026-05-04 12:46 50.16559 -49.33548 38768 ft 528 kts 77°
2026-05-04 12:47 50.19164 -49.22913 38764 ft 527 kts 77°
2026-05-04 12:47 50.21787 -49.12146 38768 ft 530 kts 77°
2026-05-04 12:48 50.24388 -49.01419 38769 ft 532 kts 77°
2026-05-04 12:48 50.27004 -48.90580 38768 ft 535 kts 78°
2026-05-04 12:49 50.29615 -48.79705 38771 ft 537 kts 77°
2026-05-04 12:49 50.32223 -48.68785 38772 ft 540 kts 77°
2026-05-04 12:50 50.34857 -48.57709 38774 ft 542 kts 77°
2026-05-04 12:50 50.37466 -48.46682 38775 ft 544 kts 77°
2026-05-04 12:51 50.40077 -48.35590 38776 ft 543 kts 77°
2026-05-04 12:51 50.42678 -48.24483 38771 ft 542 kts 77°
2026-05-04 12:52 50.45267 -48.13359 38773 ft 545 kts 77°
2026-05-04 12:52 50.47861 -48.02162 38774 ft 548 kts 77°
2026-05-04 12:53 50.50439 -47.90980 38775 ft 549 kts 77°
2026-05-04 12:53 50.53030 -47.79680 38777 ft 549 kts 77°
2026-05-04 12:54 50.55606 -47.68380 38777 ft 551 kts 76°
2026-05-04 12:54 50.58173 -47.57064 38781 ft 554 kts 76°
2026-05-04 12:55 50.60749 -47.45644 38782 ft 557 kts 76°
2026-05-04 12:55 50.63328 -47.34153 38783 ft 558 kts 77°
2026-05-04 12:56 50.65895 -47.22652 38775 ft 557 kts 76°
2026-05-04 12:56 50.68459 -47.11097 38777 ft 559 kts 75°
2026-05-04 12:57 50.70998 -46.99592 38778 ft 559 kts 75°
2026-05-04 12:57 50.73542 -46.88005 38780 ft 559 kts 75°
2026-05-04 12:58 50.76061 -46.76460 38782 ft 560 kts 75°
2026-05-04 12:58 50.78579 -46.64853 38782 ft 560 kts 74°
2026-05-04 12:59 50.81100 -46.53174 38784 ft 560 kts 74°
2026-05-04 12:59 50.83593 -46.41554 38786 ft 560 kts 74°
2026-05-04 13:00 50.86068 -46.29954 38777 ft 560 kts 75°
2026-05-04 13:00 50.88550 -46.18250 38777 ft 560 kts 73°
2026-05-04 13:01 50.91006 -46.06607 38779 ft 559 kts 73°
2026-05-04 13:01 50.93447 -45.94963 38780 ft 559 kts 73°
2026-05-04 13:02 50.95889 -45.83249 38782 ft 559 kts 73°
2026-05-04 13:02 50.98317 -45.71532 38784 ft 558 kts 73°
2026-05-04 13:03 51.00702 -45.59958 38785 ft 554 kts 73°
2026-05-04 13:03 51.03089 -45.48308 38786 ft 555 kts 73°
2026-05-04 13:04 51.05455 -45.36689 38787 ft 555 kts 73°
2026-05-04 13:04 51.07815 -45.25030 38778 ft 555 kts 74°
2026-05-04 13:05 51.10148 -45.13433 38777 ft 554 kts 73°
2026-05-04 13:05 51.12489 -45.01735 38771 ft 554 kts 73°
2026-05-04 13:06 51.14814 -44.90038 38773 ft 554 kts 73°
2026-05-04 13:06 51.17119 -44.78377 38774 ft 554 kts 73°
2026-05-04 13:07 51.19414 -44.66691 38777 ft 555 kts 72°
2026-05-04 13:07 51.21709 -44.54940 38778 ft 556 kts 72°
2026-05-04 13:08 51.23985 -44.43212 38780 ft 556 kts 72°
2026-05-04 13:08 51.26261 -44.31414 38772 ft 557 kts 73°
2026-05-04 13:09 51.28511 -44.19670 38771 ft 558 kts 72°
2026-05-04 13:09 51.30775 -44.07789 38773 ft 560 kts 72°
2026-05-04 13:10 51.33020 -43.95931 38768 ft 560 kts 72°
2026-05-04 13:10 51.35253 -43.84057 38769 ft 560 kts 72°
2026-05-04 13:11 51.37476 -43.72162 38770 ft 560 kts 71°
2026-05-04 13:11 51.39703 -43.60168 38773 ft 562 kts 71°
2026-05-04 13:12 51.41907 -43.48225 38774 ft 562 kts 71°
2026-05-04 13:12 51.44111 -43.36201 38776 ft 562 kts 71°
2026-05-04 13:13 51.46315 -43.24100 38764 ft 563 kts 72°
2026-05-04 13:13 51.48471 -43.12176 38765 ft 556 kts 71°
2026-05-04 13:14 51.50617 -43.00238 38767 ft 557 kts 71°
2026-05-04 13:14 51.52756 -42.88258 38769 ft 557 kts 71°
2026-05-04 13:15 51.54862 -42.76384 38770 ft 556 kts 71°
2026-05-04 13:15 51.56959 -42.64479 38771 ft 551 kts 70°
2026-05-04 13:16 51.59027 -42.52662 38773 ft 552 kts 70°
2026-05-04 13:16 51.61094 -42.40775 38774 ft 552 kts 70°
2026-05-04 13:17 51.63151 -42.28867 38764 ft 553 kts 71°
2026-05-04 13:17 51.65180 -42.17033 38764 ft 552 kts 70°
2026-05-04 13:18 51.67219 -42.05068 38766 ft 552 kts 70°
2026-05-04 13:18 51.69231 -41.93173 38767 ft 552 kts 70°
2026-05-04 13:19 51.71229 -41.81286 38769 ft 552 kts 70°
2026-05-04 13:19 51.73223 -41.69336 38770 ft 553 kts 70°
2026-05-04 13:20 51.75204 -41.57384 38771 ft 553 kts 70°
2026-05-04 13:20 51.77168 -41.45449 38773 ft 555 kts 69°
2026-05-04 13:21 51.79143 -41.33360 38770 ft 555 kts 70°
2026-05-04 13:21 51.81097 -41.21318 38763 ft 556 kts 70°
2026-05-04 13:22 51.83015 -41.09392 38762 ft 544 kts 71°
2026-05-04 13:22 51.84907 -40.97567 38766 ft 545 kts 71°
2026-05-04 13:23 51.86795 -40.85684 38767 ft 546 kts 71°
2026-05-04 13:23 51.88671 -40.73786 38767 ft 546 kts 71°
2026-05-04 13:24 51.90513 -40.62013 38767 ft 538 kts 72°
2026-05-04 13:24 51.92337 -40.50277 38771 ft 539 kts 72°
2026-05-04 13:25 51.95064 -40.32569 38766 ft 540 kts 73°
2026-05-04 13:25 51.96853 -40.20842 38760 ft 541 kts 73°
2026-05-04 13:26 51.98650 -40.08982 38765 ft 543 kts 73°
2026-05-04 13:26 52.00458 -39.97098 38762 ft 544 kts 70°
2026-05-04 13:27 52.03221 -39.85749 38768 ft 540 kts 62°
2026-05-04 13:27 52.06176 -39.74604 38768 ft 540 kts 63°
2026-05-04 13:28 52.09074 -39.63360 38768 ft 540 kts 63°
2026-05-04 13:28 52.11932 -39.52058 38774 ft 540 kts 63°
2026-05-04 13:29 52.14746 -39.40780 38776 ft 540 kts 63°
2026-05-04 13:29 52.17531 -39.29509 38767 ft 541 kts 64°
2026-05-04 13:30 52.20311 -39.18170 38767 ft 537 kts 63°
2026-05-04 13:30 52.23052 -39.06916 38769 ft 535 kts 63°
2026-05-04 13:31 52.25782 -38.95646 38770 ft 535 kts 63°
2026-05-04 13:31 52.28482 -38.84430 38771 ft 530 kts 64°
2026-05-04 13:32 52.31166 -38.73227 38769 ft 532 kts 64°
2026-05-04 13:32 52.33865 -38.61900 38775 ft 534 kts 64°
2026-05-04 13:33 52.36532 -38.50642 38871 ft 534 kts 64°
2026-05-04 13:33 52.39198 -38.39333 38977 ft 533 kts 64°
2026-05-04 13:34 52.41839 -38.28066 39074 ft 532 kts 65°
2026-05-04 13:34 52.44485 -38.16719 39181 ft 530 kts 65°
2026-05-04 13:35 52.48396 -37.99841 39246 ft 529 kts 65°
2026-05-04 13:36 52.50988 -37.88577 39247 ft 530 kts 65°
2026-05-04 13:36 52.53574 -37.77283 39247 ft 530 kts 65°
2026-05-04 13:37 52.56142 -37.66007 39248 ft 529 kts 66°
2026-05-04 13:37 52.58703 -37.54698 39248 ft 529 kts 66°
2026-05-04 13:38 52.61260 -37.43348 39249 ft 529 kts 66°
2026-05-04 13:38 52.63802 -37.32005 39244 ft 529 kts 66°
2026-05-04 13:39 52.66326 -37.20676 39244 ft 529 kts 66°
2026-05-04 13:39 52.68846 -37.09306 39244 ft 528 kts 66°
2026-05-04 13:40 52.71345 -36.97971 39245 ft 528 kts 66°
2026-05-04 13:40 52.73844 -36.86567 39245 ft 528 kts 66°
2026-05-04 13:41 52.76320 -36.75212 39246 ft 528 kts 67°
2026-05-04 13:41 52.78783 -36.63854 39247 ft 528 kts 68°
2026-05-04 13:42 52.82465 -36.46752 39248 ft 528 kts 68°
2026-05-04 13:42 52.84910 -36.35316 39248 ft 528 kts 68°
2026-05-04 13:43 52.87343 -36.23874 39244 ft 528 kts 68°
2026-05-04 13:43 52.89746 -36.12506 39244 ft 527 kts 68°
2026-05-04 13:44 52.92159 -36.01030 39244 ft 526 kts 68°
2026-05-04 13:44 52.94544 -35.89620 39245 ft 526 kts 68°
2026-05-04 13:45 52.96914 -35.78217 39245 ft 525 kts 68°
2026-05-04 13:45 52.99277 -35.66781 39246 ft 525 kts 69°
2026-05-04 13:46 53.01626 -35.55348 39247 ft 525 kts 69°
2026-05-04 13:46 53.03966 -35.43893 39247 ft 525 kts 69°
2026-05-04 13:47 53.06308 -35.32362 39244 ft 525 kts 69°
2026-05-04 13:47 53.08623 -35.20897 39244 ft 525 kts 70°
2026-05-04 13:48 53.10924 -35.09436 39246 ft 524 kts 70°
2026-05-04 13:48 53.13211 -34.97975 39247 ft 524 kts 70°
2026-05-04 13:49 53.15490 -34.86490 39247 ft 524 kts 70°
2026-05-04 13:49 53.17767 -34.74947 39248 ft 524 kts 70°
2026-05-04 13:50 53.20023 -34.63437 39248 ft 524 kts 70°
2026-05-04 13:50 53.22269 -34.51915 39249 ft 524 kts 70°
2026-05-04 13:51 53.24514 -34.40326 39249 ft 524 kts 70°
2026-05-04 13:51 53.26740 -34.28760 39245 ft 524 kts 71°
2026-05-04 13:52 53.30048 -34.11449 39245 ft 522 kts 71°
2026-05-04 13:53 53.32242 -33.99881 39246 ft 522 kts 71°
2026-05-04 13:53 53.34408 -33.88387 39247 ft 522 kts 71°
2026-05-04 13:54 53.37660 -33.70999 39248 ft 522 kts 71°
2026-05-04 13:55 53.40883 -33.53608 39248 ft 521 kts 71°
2026-05-04 13:55 53.44069 -33.36247 39249 ft 521 kts 71°
2026-05-04 13:56 53.46177 -33.24674 39245 ft 521 kts 72°
2026-05-04 13:57 53.49325 -33.07252 39245 ft 520 kts 72°
2026-05-04 13:58 53.53475 -32.84031 39246 ft 520 kts 72°
2026-05-04 13:58 53.56549 -32.66633 39247 ft 519 kts 72°
2026-05-04 13:59 53.58582 -32.55032 39248 ft 518 kts 72°
2026-05-04 14:00 53.61615 -32.37584 39248 ft 518 kts 72°
2026-05-04 14:00 53.64617 -32.20148 39245 ft 518 kts 73°
2026-05-04 14:01 53.66615 -32.08448 39245 ft 518 kts 73°
2026-05-04 14:02 53.69578 -31.90947 39246 ft 518 kts 73°
2026-05-04 14:02 53.71534 -31.79300 39247 ft 518 kts 73°
2026-05-04 14:03 53.73489 -31.67579 39247 ft 518 kts 73°
2026-05-04 14:03 53.75425 -31.55894 39248 ft 518 kts 73°
2026-05-04 14:04 53.78310 -31.38325 39248 ft 517 kts 73°
2026-05-04 14:04 53.80217 -31.26613 39245 ft 517 kts 74°
2026-05-04 14:05 53.83046 -31.09089 39245 ft 517 kts 74°
2026-05-04 14:06 53.84916 -30.97407 39246 ft 517 kts 74°
2026-05-04 14:06 53.86778 -30.85690 39292 ft 516 kts 74°
2026-05-04 14:07 53.88634 -30.73925 39308 ft 515 kts 74°
2026-05-04 14:07 53.90471 -30.62204 39308 ft 515 kts 74°
2026-05-04 14:08 53.92290 -30.50515 39309 ft 515 kts 74°
2026-05-04 14:08 53.94097 -30.38819 39309 ft 515 kts 74°
2026-05-04 14:09 53.96795 -30.21193 39307 ft 514 kts 75°
2026-05-04 14:10 53.99461 -30.03589 39306 ft 514 kts 75°
2026-05-04 14:10 54.01174 -29.91826 39307 ft 514 kts 75°
2026-05-04 14:11 54.02863 -29.80058 39307 ft 514 kts 75°
2026-05-04 14:11 54.05373 -29.62386 39308 ft 513 kts 75°
2026-05-04 14:12 54.07028 -29.50617 39308 ft 513 kts 75°
2026-05-04 14:13 54.09489 -29.32943 39307 ft 513 kts 76°
2026-05-04 14:13 54.11122 -29.21091 39307 ft 513 kts 76°
2026-05-04 14:14 54.12734 -29.09307 39307 ft 512 kts 76°
2026-05-04 14:14 54.15136 -28.91569 39308 ft 512 kts 76°
2026-05-04 14:15 54.18290 -28.67946 39308 ft 511 kts 76°
2026-05-04 14:16 54.20623 -28.50219 39309 ft 511 kts 76°
2026-05-04 14:17 54.22938 -28.32408 39307 ft 511 kts 77°
2026-05-04 14:18 54.25208 -28.14726 39306 ft 510 kts 77°
2026-05-04 14:19 54.28216 -27.90947 39246 ft 512 kts 77°
2026-05-04 14:19 54.29700 -27.79064 39247 ft 512 kts 77°
2026-05-04 14:20 54.31168 -27.67208 39247 ft 512 kts 77°
2026-05-04 14:20 54.32633 -27.55276 39248 ft 512 kts 77°
2026-05-04 14:21 54.34804 -27.37397 39248 ft 512 kts 77°
2026-05-04 14:21 54.36240 -27.25444 39245 ft 512 kts 78°
2026-05-04 14:22 54.37667 -27.13448 39245 ft 512 kts 78°
2026-05-04 14:22 54.39078 -27.01485 39246 ft 513 kts 78°
2026-05-04 14:23 54.41170 -26.83537 39247 ft 513 kts 78°
2026-05-04 14:24 54.42550 -26.71569 39247 ft 513 kts 78°
2026-05-04 14:24 54.43923 -26.59543 39247 ft 513 kts 78°
2026-05-04 14:25 54.45276 -26.47585 39248 ft 513 kts 78°
2026-05-04 14:25 54.47287 -26.29599 39245 ft 513 kts 78°
2026-05-04 14:26 54.48623 -26.17502 39245 ft 513 kts 78°
2026-05-04 14:26 54.49937 -26.05492 39246 ft 513 kts 78°
2026-05-04 14:27 54.51240 -25.93468 39246 ft 513 kts 78°
2026-05-04 14:27 54.52527 -25.81467 39246 ft 513 kts 78°
2026-05-04 14:28 54.53810 -25.69390 39246 ft 511 kts 78°
2026-05-04 14:28 54.55071 -25.57397 39247 ft 511 kts 78°
2026-05-04 14:29 54.57569 -25.33280 39247 ft 511 kts 79°
2026-05-04 14:30 54.58795 -25.21261 39245 ft 511 kts 79°
2026-05-04 14:31 54.60618 -25.03153 39246 ft 512 kts 79°
2026-05-04 14:32 54.63003 -24.79020 39232 ft 512 kts 79°
2026-05-04 14:32 54.64179 -24.66929 39226 ft 512 kts 79°
2026-05-04 14:33 54.65352 -24.54735 39231 ft 512 kts 79°
2026-05-04 14:33 54.66499 -24.42681 39228 ft 513 kts 79°
2026-05-04 14:34 54.67641 -24.30538 39224 ft 513 kts 80°
2026-05-04 14:34 54.68772 -24.18392 39224 ft 512 kts 80°
2026-05-04 14:35 54.69891 -24.06229 39225 ft 512 kts 80°
2026-05-04 14:35 54.71004 -23.93983 39225 ft 512 kts 80°
2026-05-04 14:36 54.72103 -23.81756 39226 ft 512 kts 80°
2026-05-04 14:36 54.73191 -23.69512 39226 ft 511 kts 80°
2026-05-04 14:37 54.74260 -23.57326 39226 ft 511 kts 80°
2026-05-04 14:37 54.75312 -23.45189 39226 ft 511 kts 80°
2026-05-04 14:38 54.76362 -23.32944 39226 ft 511 kts 81°
2026-05-04 14:38 54.77396 -23.20712 39225 ft 511 kts 81°
2026-05-04 14:39 54.78415 -23.08532 39225 ft 511 kts 81°
2026-05-04 14:39 54.79422 -22.96323 39225 ft 511 kts 81°
2026-05-04 14:40 54.80877 -22.78419 39226 ft 511 kts 81°
2026-05-04 14:40 54.81858 -22.66148 39226 ft 511 kts 81°
2026-05-04 14:41 54.82820 -22.53958 39227 ft 512 kts 81°
2026-05-04 14:42 54.84722 -22.29385 39224 ft 512 kts 82°
2026-05-04 14:42 54.85649 -22.17152 39205 ft 512 kts 82°
2026-05-04 14:43 54.86570 -22.04827 39204 ft 512 kts 82°
2026-05-04 14:43 54.87474 -21.92560 39205 ft 512 kts 82°
2026-05-04 14:44 54.88365 -21.80308 39205 ft 512 kts 82°
2026-05-04 14:44 54.89243 -21.68051 39205 ft 512 kts 82°
2026-05-04 14:45 54.90111 -21.55750 39206 ft 512 kts 82°
2026-05-04 14:45 54.90968 -21.43427 39206 ft 512 kts 82°
2026-05-04 14:46 54.91810 -21.31139 39204 ft 512 kts 83°
2026-05-04 14:46 54.92645 -21.18762 39204 ft 512 kts 83°
2026-05-04 14:47 54.93466 -21.06389 39204 ft 512 kts 83°
2026-05-04 14:47 54.94268 -20.94127 39204 ft 513 kts 83°
2026-05-04 14:48 54.95062 -20.81787 39205 ft 513 kts 83°
2026-05-04 14:48 54.95845 -20.69417 39205 ft 513 kts 83°
2026-05-04 14:49 54.96614 -20.57075 39206 ft 513 kts 83°
2026-05-04 14:49 54.97369 -20.44742 39206 ft 514 kts 83°
2026-05-04 14:50 54.98117 -20.32309 39204 ft 514 kts 83°
2026-05-04 14:50 54.98853 -20.19868 39203 ft 514 kts 83°
2026-05-04 14:51 54.99572 -20.07503 39204 ft 514 kts 83°
2026-05-04 14:51 55.00040 -19.95060 39204 ft 514 kts 87°
2026-05-04 14:52 55.00312 -19.82618 39205 ft 515 kts 87°
2026-05-04 14:52 55.00559 -19.70125 39205 ft 514 kts 87°
2026-05-04 14:53 55.00787 -19.57612 39206 ft 514 kts 87°
2026-05-04 14:53 55.00997 -19.45133 39206 ft 514 kts 87°
2026-05-04 14:54 55.01193 -19.32663 39205 ft 514 kts 88°
2026-05-04 14:54 55.01374 -19.20178 39203 ft 514 kts 88°
2026-05-04 14:55 55.01543 -19.07659 39204 ft 514 kts 88°
2026-05-04 14:55 55.01699 -18.95210 39204 ft 514 kts 88°
2026-05-04 14:56 55.01841 -18.82721 39205 ft 514 kts 88°
2026-05-04 14:56 55.01971 -18.70231 39205 ft 514 kts 88°
2026-05-04 14:57 55.02088 -18.57764 39205 ft 514 kts 88°
2026-05-04 14:57 55.02191 -18.45355 39206 ft 514 kts 88°
2026-05-04 14:58 55.02283 -18.32850 39205 ft 514 kts 89°
2026-05-04 14:58 55.02349 -18.22458 39204 ft 513 kts 89°
2026-05-04 14:59 55.02427 -18.07883 39204 ft 513 kts 89°
2026-05-04 15:00 55.02501 -17.89219 39204 ft 513 kts 89°
2026-05-04 15:00 55.02535 -17.76733 39205 ft 513 kts 89°
2026-05-04 15:01 55.02562 -17.57884 39206 ft 515 kts 89°
2026-05-04 15:01 55.02564 -17.45282 39206 ft 516 kts 89°
2026-05-04 15:02 55.02552 -17.32770 39205 ft 516 kts 90°
2026-05-04 15:02 55.02529 -17.20718 39203 ft 516 kts 89°
2026-05-04 15:03 55.02493 -17.08118 39204 ft 515 kts 89°
2026-05-04 15:03 55.02443 -16.95616 39204 ft 516 kts 89°
2026-05-04 15:04 55.02381 -16.83082 39204 ft 516 kts 89°
2026-05-04 15:04 55.02306 -16.70612 39205 ft 515 kts 90°
2026-05-04 15:05 55.02218 -16.58096 39205 ft 515 kts 90°
2026-05-04 15:05 55.02117 -16.45614 39206 ft 515 kts 90°
2026-05-04 15:06 55.02005 -16.33160 39205 ft 515 kts 90°
2026-05-04 15:07 55.01810 -16.14379 39203 ft 514 kts 90°
2026-05-04 15:07 55.01665 -16.01901 39204 ft 514 kts 90°
2026-05-04 15:08 55.01508 -15.89470 39204 ft 514 kts 90°
2026-05-04 15:08 55.01336 -15.76933 39205 ft 514 kts 90°
2026-05-04 15:09 55.01152 -15.64484 39205 ft 515 kts 90°
2026-05-04 15:09 55.00955 -15.51951 39206 ft 515 kts 90°
2026-05-04 15:10 55.00636 -15.33193 39205 ft 515 kts 91°
2026-05-04 15:11 55.00290 -15.14544 39203 ft 515 kts 91°
2026-05-04 15:11 55.00042 -15.02059 39204 ft 515 kts 91°
2026-05-04 15:12 54.99975 -14.89584 39205 ft 514 kts 88°
2026-05-04 15:12 55.00037 -14.77087 39205 ft 514 kts 89°
2026-05-04 15:13 55.00075 -14.64572 39205 ft 514 kts 89°
2026-05-04 15:13 55.00092 -14.52097 39206 ft 514 kts 89°
2026-05-04 15:14 55.00093 -14.39608 39206 ft 514 kts 89°
2026-05-04 15:14 55.00078 -14.27075 39203 ft 514 kts 90°
2026-05-04 15:15 55.00050 -14.14637 39204 ft 514 kts 90°
2026-05-04 15:15 54.99942 -14.02205 39202 ft 514 kts 95°
2026-05-04 15:16 54.97852 -13.83885 39205 ft 514 kts 103°
2026-05-04 15:17 54.95425 -13.65717 39206 ft 513 kts 103°
2026-05-04 15:17 54.93008 -13.47885 39206 ft 513 kts 103°
2026-05-04 15:18 54.91413 -13.36236 39207 ft 513 kts 103°
2026-05-04 15:19 54.88902 -13.18086 39204 ft 513 kts 104°
2026-05-04 15:19 54.86374 -13.00045 39204 ft 513 kts 104°
2026-05-04 15:20 54.84676 -12.88036 39205 ft 513 kts 104°
2026-05-04 15:20 54.82965 -12.76033 39205 ft 513 kts 104°
2026-05-04 15:21 54.81251 -12.64106 39206 ft 513 kts 104°
2026-05-04 15:22 54.78640 -12.46100 39207 ft 513 kts 104°
2026-05-04 15:22 54.76001 -12.28112 39204 ft 512 kts 105°
2026-05-04 15:23 54.74231 -12.16167 39213 ft 508 kts 105°
2026-05-04 15:23 54.72543 -12.04843 39205 ft 503 kts 105°
2026-05-04 15:24 54.68988 -11.81273 39205 ft 504 kts 105°
2026-05-04 15:25 54.67205 -11.69581 39218 ft 503 kts 105°
2026-05-04 15:26 54.64510 -11.52065 39224 ft 504 kts 105°
2026-05-04 15:26 54.61849 -11.34950 39206 ft 504 kts 105°
2026-05-04 15:27 54.59106 -11.17492 39223 ft 503 kts 105°
2026-05-04 15:28 54.56330 -11.00010 39225 ft 503 kts 105°
2026-05-04 15:29 54.53525 -10.82522 39206 ft 503 kts 105°
2026-05-04 15:30 54.46989 -10.42463 39226 ft 501 kts 105°
2026-05-04 15:31 54.44128 -10.25217 39213 ft 502 kts 106°
2026-05-04 15:32 54.39292 -9.96450 39226 ft 499 kts 106°
2026-05-04 15:34 54.34415 -9.67910 39226 ft 498 kts 106°
2026-05-04 15:34 54.31463 -9.50858 39226 ft 498 kts 106°
2026-05-04 15:35 54.28489 -9.33841 39226 ft 498 kts 107°
2026-05-04 15:36 54.25474 -9.16751 39225 ft 498 kts 106°
2026-05-04 15:36 54.23463 -9.05441 39227 ft 498 kts 106°
2026-05-04 15:37 54.21442 -8.94146 39226 ft 495 kts 106°
2026-05-04 15:37 54.19421 -8.82919 39226 ft 495 kts 106°
2026-05-04 15:38 54.17387 -8.71688 39227 ft 495 kts 106°
2026-05-04 15:38 54.15341 -8.60464 39227 ft 495 kts 106°
2026-05-04 15:39 54.13288 -8.49266 39227 ft 495 kts 106°
2026-05-04 15:40 54.10198 -8.32540 39227 ft 495 kts 107°
2026-05-04 15:40 54.08111 -8.21329 39227 ft 494 kts 107°
2026-05-04 15:41 54.06018 -8.10153 39227 ft 494 kts 107°
2026-05-04 15:41 54.03923 -7.99029 39227 ft 494 kts 107°
2026-05-04 15:42 54.01819 -7.87923 39227 ft 494 kts 107°
2026-05-04 15:42 53.99697 -7.76789 39227 ft 494 kts 107°
2026-05-04 15:43 53.97572 -7.65707 39227 ft 494 kts 107°
2026-05-04 15:43 53.95427 -7.54581 39227 ft 494 kts 107°
2026-05-04 15:44 53.93276 -7.43491 39227 ft 494 kts 107°
2026-05-04 15:44 53.91120 -7.32437 39226 ft 494 kts 107°
2026-05-04 15:45 53.88963 -7.21446 39184 ft 493 kts 107°
2026-05-04 15:45 53.86772 -7.10339 39183 ft 493 kts 107°
2026-05-04 15:46 53.84582 -6.99307 39183 ft 493 kts 107°
2026-05-04 15:46 53.82376 -6.88248 39183 ft 493 kts 107°
2026-05-04 15:47 53.80169 -6.77251 39183 ft 493 kts 107°
2026-05-04 15:47 53.77947 -6.66242 39183 ft 493 kts 107°
2026-05-04 15:48 53.75727 -6.55306 39183 ft 493 kts 107°
2026-05-04 15:48 53.72361 -6.38836 39183 ft 491 kts 107°
2026-05-04 15:49 53.70137 -6.28027 39184 ft 491 kts 108°
2026-05-04 15:49 53.67880 -6.17113 39184 ft 492 kts 108°
2026-05-04 15:50 53.65619 -6.06243 39184 ft 492 kts 108°
2026-05-04 15:50 53.63340 -5.95351 39184 ft 492 kts 108°
2026-05-04 15:51 53.61047 -5.84446 39184 ft 492 kts 108°
2026-05-04 15:51 53.58748 -5.73570 39184 ft 492 kts 108°
2026-05-04 15:52 53.56443 -5.62727 39184 ft 492 kts 108°
2026-05-04 15:52 53.54155 -5.51897 39180 ft 491 kts 105°
2026-05-04 15:53 53.53071 -5.40656 39183 ft 488 kts 89°
2026-05-04 15:53 53.52966 -5.29252 39184 ft 488 kts 90°
2026-05-04 15:54 53.52789 -5.17893 39184 ft 488 kts 90°
2026-05-04 15:54 53.52515 -5.06468 39184 ft 488 kts 91°
2026-05-04 15:55 53.52183 -4.95059 39184 ft 488 kts 91°
2026-05-04 15:55 53.51828 -4.83738 39184 ft 488 kts 91°
2026-05-04 15:56 53.51456 -4.72299 39184 ft 488 kts 91°
2026-05-04 15:56 53.51071 -4.60935 39184 ft 489 kts 91°
2026-05-04 15:57 53.50671 -4.49510 39184 ft 489 kts 91°
2026-05-04 15:57 53.50261 -4.38139 39184 ft 489 kts 91°
2026-05-04 15:58 53.49840 -4.26764 39185 ft 489 kts 92°
2026-05-04 15:58 53.49405 -4.15353 39185 ft 491 kts 92°
2026-05-04 15:59 53.48961 -4.03972 39184 ft 491 kts 92°
2026-05-04 15:59 53.47863 -3.92650 39182 ft 493 kts 106°
2026-05-04 16:00 53.45676 -3.81770 39188 ft 493 kts 108°
2026-05-04 16:00 53.43426 -3.70891 39224 ft 494 kts 108°
2026-05-04 16:01 53.41439 -3.59874 39244 ft 493 kts 98°
2026-05-04 16:01 53.40780 -3.48531 39246 ft 492 kts 93°
2026-05-04 16:02 53.40274 -3.37063 39246 ft 492 kts 93°
2026-05-04 16:03 53.39497 -3.20004 39246 ft 493 kts 94°
2026-05-04 16:03 53.38985 -3.08513 39224 ft 494 kts 93°
2026-05-04 16:04 53.38570 -2.97080 39185 ft 493 kts 93°
2026-05-04 16:04 53.37917 -2.79832 39185 ft 494 kts 93°
2026-05-04 16:05 53.37468 -2.68426 39184 ft 494 kts 93°
2026-05-04 16:06 53.36763 -2.51121 39179 ft 496 kts 93°
2026-05-04 16:07 53.35781 -2.28093 39162 ft 496 kts 95°
2026-05-04 16:08 53.33568 -2.05316 39164 ft 499 kts 99°
2026-05-04 16:09 53.30575 -1.76696 39145 ft 499 kts 99°
2026-05-04 16:10 53.28129 -1.53784 39144 ft 500 kts 100°
2026-05-04 16:11 53.25642 -1.30926 39143 ft 500 kts 101°
2026-05-04 16:12 53.21814 -0.96552 39162 ft 500 kts 101°
2026-05-04 16:13 53.19223 -0.73816 39163 ft 500 kts 101°
2026-05-04 16:14 53.16576 -0.50996 39163 ft 500 kts 101°
2026-05-04 16:16 53.13204 -0.22496 39162 ft 501 kts 102°
2026-05-04 16:17 53.09765 0.05954 39163 ft 501 kts 102°
2026-05-04 16:18 53.06966 0.28677 39163 ft 502 kts 102°
2026-05-04 16:19 53.03399 0.57086 39163 ft 503 kts 102°
2026-05-04 16:20 52.99749 0.85587 39163 ft 504 kts 103°
2026-05-04 16:22 52.94836 1.13455 39163 ft 504 kts 111°
2026-05-04 16:23 52.87415 1.46089 39165 ft 505 kts 111°
2026-05-04 16:25 52.79887 1.78645 39164 ft 505 kts 112°
2026-05-04 16:26 52.71024 2.16342 39165 ft 503 kts 113°
2026-05-04 16:28 52.64591 2.43294 39146 ft 504 kts 113°
2026-05-04 16:29 52.55500 2.80823 39143 ft 505 kts 114°
2026-05-04 16:31 52.51037 3.08822 39143 ft 508 kts 105°
2026-05-04 16:32 52.45984 3.42605 39145 ft 511 kts 105°
2026-05-04 16:33 52.42538 3.65181 39145 ft 511 kts 107°
2026-05-04 16:34 52.39924 3.82087 39142 ft 511 kts 107°
2026-05-04 16:35 52.34604 4.15956 39123 ft 511 kts 107°
2026-05-04 16:36 52.31920 4.32783 39123 ft 512 kts 107°
2026-05-04 16:37 52.29197 4.49678 39123 ft 511 kts 107°
2026-05-04 16:38 52.25551 4.72041 39120 ft 511 kts 108°
2026-05-04 16:39 52.20949 4.99852 39121 ft 507 kts 108°
2026-05-04 16:40 52.17237 5.21964 39121 ft 507 kts 108°
2026-05-04 16:41 52.12516 5.49685 39101 ft 508 kts 108°
2026-05-04 16:43 52.07643 5.77209 39096 ft 505 kts 115°
2026-05-04 16:43 52.04308 5.87068 39099 ft 499 kts 130°
2026-05-04 16:43 52.02178 5.91482 39100 ft 499 kts 132°
2026-05-04 16:45 51.89011 6.17495 39102 ft 498 kts 133°
2026-05-04 16:46 51.77883 6.39024 39105 ft 499 kts 133°
2026-05-04 16:47 51.68968 6.56109 39105 ft 499 kts 133°
2026-05-04 16:48 51.60041 6.73098 39121 ft 499 kts 134°
2026-05-04 16:49 51.51033 6.90122 39122 ft 502 kts 134°
2026-05-04 16:50 51.42001 7.07078 39122 ft 502 kts 134°
2026-05-04 16:51 51.35195 7.19778 39106 ft 502 kts 134°
2026-05-04 16:52 51.26131 7.36597 39103 ft 504 kts 134°
2026-05-04 16:53 51.19306 7.49191 39103 ft 499 kts 135°
2026-05-04 16:54 51.10204 7.65885 39122 ft 499 kts 136°
2026-05-04 16:55 50.96632 7.90579 39118 ft 500 kts 135°
2026-05-04 16:56 50.84594 8.10126 39125 ft 497 kts 140°
2026-05-04 16:57 50.77147 8.21466 39125 ft 497 kts 140°
2026-05-04 16:58 50.67233 8.36479 39126 ft 495 kts 141°
2026-05-04 17:00 50.52375 8.58806 39126 ft 495 kts 141°
2026-05-04 17:01 50.39922 8.77361 39101 ft 495 kts 141°
2026-05-04 17:02 50.31556 8.94590 39103 ft 510 kts 118°
2026-05-04 17:03 50.27187 9.09775 39101 ft 511 kts 118°
2026-05-04 17:03 50.22799 9.24884 39101 ft 509 kts 118°
2026-05-04 17:04 50.16890 9.45018 39102 ft 511 kts 118°
2026-05-04 17:05 50.10949 9.65072 39103 ft 511 kts 118°
2026-05-04 17:06 50.06278 9.79922 39102 ft 507 kts 126°
2026-05-04 17:07 50.01811 9.90599 39089 ft 507 kts 127°
2026-05-04 17:07 49.96643 10.02794 39089 ft 506 kts 127°
2026-05-04 17:08 49.90812 10.16483 39089 ft 506 kts 127°
2026-05-04 17:09 49.86940 10.25532 39095 ft 507 kts 127°
2026-05-04 17:09 49.83033 10.34632 39095 ft 507 kts 127°
2026-05-04 17:10 49.73256 10.57270 39096 ft 506 kts 127°
2026-05-04 17:11 49.69355 10.66248 39095 ft 505 kts 128°
2026-05-04 17:12 49.63490 10.79690 39082 ft 505 kts 127°
2026-05-04 17:13 49.53662 11.02065 39081 ft 505 kts 127°
2026-05-04 17:14 49.47109 11.21143 39082 ft 509 kts 120°
2026-05-04 17:15 49.42316 11.35709 39082 ft 510 kts 120°
2026-05-04 17:16 49.35893 11.55061 39087 ft 510 kts 120°
2026-05-04 17:17 49.29442 11.74337 39082 ft 509 kts 120°
2026-05-04 17:18 49.22944 11.93600 39083 ft 509 kts 120°
2026-05-04 17:19 49.16439 12.12736 39084 ft 509 kts 120°
2026-05-04 17:20 49.09894 12.31847 39086 ft 510 kts 120°
2026-05-04 17:20 49.04973 12.46126 39086 ft 509 kts 120°
2026-05-04 17:21 48.98352 12.65208 39087 ft 509 kts 120°
2026-05-04 17:22 48.95044 12.74693 39082 ft 509 kts 120°
2026-05-04 17:23 48.88399 12.93634 39085 ft 509 kts 120°
2026-05-04 17:24 48.83377 13.07863 39083 ft 509 kts 120°
2026-05-04 17:25 48.76671 13.26737 39042 ft 509 kts 120°
2026-05-04 17:26 48.69957 13.45495 39042 ft 508 kts 120°
2026-05-04 17:27 48.62243 13.65808 39042 ft 507 kts 124°
2026-05-04 17:28 48.56117 13.80561 39039 ft 507 kts 124°
2026-05-04 17:29 48.44539 14.07190 39040 ft 506 kts 128°
2026-05-04 17:31 48.34332 14.28684 39041 ft 507 kts 128°
2026-05-04 17:32 48.24394 14.49451 39042 ft 507 kts 127°
2026-05-04 17:33 48.16190 14.66473 39040 ft 506 kts 128°
2026-05-04 17:34 48.07887 14.83596 39038 ft 507 kts 128°
2026-05-04 17:35 47.97520 15.04823 39039 ft 507 kts 128°
2026-05-04 17:36 47.93361 15.13292 39040 ft 507 kts 128°
2026-05-04 17:36 47.89225 15.21689 39053 ft 507 kts 128°
2026-05-04 17:37 47.85038 15.30162 39063 ft 508 kts 128°
2026-05-04 17:37 47.80842 15.38630 39063 ft 508 kts 128°
2026-05-04 17:38 47.76666 15.47030 39064 ft 508 kts 128°
2026-05-04 17:38 47.72446 15.55491 39092 ft 507 kts 127°
2026-05-04 17:39 47.66144 15.68080 39104 ft 507 kts 128°
2026-05-04 17:39 47.61941 15.76442 39104 ft 507 kts 128°
2026-05-04 17:40 47.57698 15.84861 39109 ft 509 kts 128°
2026-05-04 17:40 47.53489 15.93185 39110 ft 509 kts 128°
2026-05-04 17:41 47.49236 16.01570 39110 ft 509 kts 128°
2026-05-04 17:41 47.44999 16.09899 39111 ft 509 kts 128°
2026-05-04 17:42 47.40747 16.18232 39111 ft 509 kts 128°
2026-05-04 17:42 47.36489 16.26552 39111 ft 509 kts 128°
2026-05-04 17:43 47.32223 16.34861 39108 ft 509 kts 128°
2026-05-04 17:43 47.27956 16.43148 39109 ft 509 kts 128°
2026-05-04 17:44 47.23674 16.51437 39113 ft 508 kts 127°
2026-05-04 17:44 47.19400 16.59690 39125 ft 507 kts 127°
2026-05-04 17:45 47.15800 16.66620 39124 ft 507 kts 128°
2026-05-04 17:45 47.10825 16.76167 39122 ft 507 kts 128°
2026-05-04 17:46 47.06506 16.84431 39123 ft 508 kts 128°
2026-05-04 17:46 47.02210 16.92626 39123 ft 508 kts 128°
2026-05-04 17:47 46.97868 17.00883 39124 ft 508 kts 128°
2026-05-04 17:47 46.93722 17.08745 39124 ft 508 kts 128°
2026-05-04 17:48 46.89372 17.16970 39124 ft 508 kts 128°
2026-05-04 17:48 46.85766 17.23770 39122 ft 508 kts 128°
2026-05-04 17:49 46.80719 17.33258 39123 ft 507 kts 128°
2026-05-04 17:49 46.76391 17.41368 39123 ft 507 kts 128°
2026-05-04 17:50 46.72061 17.49458 39123 ft 506 kts 127°
2026-05-04 17:50 46.67738 17.57513 39123 ft 507 kts 127°
2026-05-04 17:51 46.63389 17.65592 39123 ft 507 kts 128°
2026-05-04 17:51 46.59758 17.72319 39121 ft 507 kts 128°
2026-05-04 17:52 46.54690 17.81682 39122 ft 506 kts 128°
2026-05-04 17:52 46.51051 17.88384 39122 ft 506 kts 128°
2026-05-04 17:53 46.46684 17.96407 39123 ft 506 kts 128°
2026-05-04 17:53 46.42302 18.04435 39163 ft 507 kts 128°
2026-05-04 17:54 46.37900 18.12475 39164 ft 506 kts 128°
2026-05-04 17:54 46.33542 18.20412 39165 ft 506 kts 128°
2026-05-04 17:55 46.29134 18.28419 39165 ft 506 kts 128°
2026-05-04 17:55 46.24009 18.37696 39165 ft 506 kts 128°
2026-05-04 17:56 46.20354 18.44294 39166 ft 506 kts 128°
2026-05-04 17:56 46.15932 18.52257 39166 ft 506 kts 128°
2026-05-04 17:57 46.11522 18.60175 39166 ft 506 kts 128°
2026-05-04 17:57 46.07598 18.67201 39165 ft 506 kts 129°
2026-05-04 17:58 46.03184 18.75083 39165 ft 506 kts 129°
2026-05-04 17:58 45.98756 18.82967 39166 ft 507 kts 128°
2026-05-04 17:59 45.94288 18.90901 39166 ft 507 kts 128°
2026-05-04 18:00 45.86716 19.03724 39162 ft 507 kts 130°
2026-05-04 18:00 45.82088 19.11402 39163 ft 510 kts 130°
2026-05-04 18:01 45.77450 19.19089 39375 ft 509 kts 130°
2026-05-04 18:01 45.75185 19.22835 40016 ft 499 kts 130°
2026-05-04 18:01 45.72934 19.26557 40784 ft 485 kts 130°
2026-05-04 18:02 45.68589 19.33726 41244 ft 482 kts 130°
2026-05-04 18:02 45.67104 19.36174 41248 ft 485 kts 130°
2026-05-04 18:02 45.61932 19.44681 41247 ft 487 kts 130°
2026-05-04 18:03 45.58237 19.50744 41248 ft 487 kts 130°
2026-05-04 18:03 45.53063 19.59212 41248 ft 487 kts 130°
2026-05-04 18:04 45.48624 19.66455 41247 ft 487 kts 131°
2026-05-04 18:05 45.41939 19.77331 41266 ft 487 kts 130°
2026-05-04 18:05 45.37444 19.84618 41268 ft 488 kts 130°
2026-05-04 18:06 45.31471 19.94273 41268 ft 487 kts 131°
2026-05-04 18:06 45.26955 20.01449 41269 ft 487 kts 131°
2026-05-04 18:07 45.21685 20.09781 41269 ft 487 kts 131°
2026-05-04 18:07 45.17987 20.15617 41270 ft 487 kts 131°
2026-05-04 18:08 45.13476 20.22719 41270 ft 487 kts 131°
2026-05-04 18:08 45.08942 20.29840 41270 ft 487 kts 131°
2026-05-04 18:09 44.99115 20.45215 41271 ft 487 kts 131°
2026-05-04 18:10 44.95310 20.51144 41272 ft 487 kts 131°
2026-05-04 18:10 44.90006 20.59391 41272 ft 487 kts 131°
2026-05-04 18:11 44.86227 20.65249 41267 ft 487 kts 132°
2026-05-04 18:11 44.81662 20.72312 41265 ft 487 kts 132°
2026-05-04 18:12 44.77120 20.79321 41267 ft 489 kts 131°
2026-05-04 18:12 44.72509 20.86419 41266 ft 489 kts 131°
2026-05-04 18:13 44.67933 20.93444 41266 ft 488 kts 131°
2026-05-04 18:14 44.60279 21.05156 41267 ft 488 kts 131°
2026-05-04 18:14 44.55673 21.12179 41267 ft 488 kts 131°
2026-05-04 18:15 44.46461 21.26177 41269 ft 488 kts 131°
2026-05-04 18:16 44.41848 21.33158 41269 ft 487 kts 131°
2026-05-04 18:16 44.37236 21.40121 41269 ft 487 kts 131°
2026-05-04 18:17 44.31089 21.49376 41270 ft 487 kts 131°
2026-05-04 18:18 44.23418 21.60881 41270 ft 488 kts 131°
2026-05-04 18:18 44.18796 21.67791 41269 ft 488 kts 132°
2026-05-04 18:19 44.11816 21.78194 41269 ft 487 kts 132°
2026-05-04 18:19 44.07949 21.83941 41270 ft 487 kts 132°
2026-05-04 18:20 44.02578 21.91903 41270 ft 487 kts 132°
2026-05-04 18:20 43.98697 21.97641 41271 ft 487 kts 132°
2026-05-04 18:21 43.94066 22.04474 41271 ft 487 kts 132°
2026-05-04 18:21 43.88634 22.12468 41267 ft 487 kts 132°
2026-05-04 18:22 43.84787 22.18115 41266 ft 487 kts 132°
2026-05-04 18:22 43.80123 22.24947 41266 ft 487 kts 132°
2026-05-04 18:23 43.75474 22.31740 41267 ft 486 kts 132°
2026-05-04 18:23 43.70787 22.38573 41267 ft 490 kts 131°
2026-05-04 18:24 43.68000 22.43489 41267 ft 487 kts 120°
2026-05-04 18:24 43.66880 22.46178 41268 ft 485 kts 115°
2026-05-04 18:24 43.63848 22.54527 41268 ft 485 kts 114°
2026-05-04 18:25 43.60842 22.62806 41268 ft 485 kts 114°
2026-05-04 18:25 43.57305 22.72465 41267 ft 485 kts 115°
2026-05-04 18:26 43.54755 22.79386 41267 ft 485 kts 115°
2026-05-04 18:26 43.51199 22.89001 41267 ft 485 kts 115°
2026-05-04 18:27 43.48638 22.95896 41268 ft 485 kts 115°
2026-05-04 18:27 43.45560 23.04161 41268 ft 485 kts 115°
2026-05-04 18:28 43.42479 23.12408 41288 ft 485 kts 115°
2026-05-04 18:28 43.39398 23.20632 41289 ft 485 kts 115°
2026-05-04 18:29 43.36305 23.28862 41289 ft 484 kts 115°
2026-05-04 18:29 43.33212 23.37071 41290 ft 483 kts 115°
2026-05-04 18:30 43.28453 23.49650 41290 ft 483 kts 115°
2026-05-04 18:31 43.25327 23.57885 41290 ft 483 kts 115°
2026-05-04 18:31 43.22207 23.66080 41290 ft 484 kts 116°
2026-05-04 18:32 43.19086 23.74252 41289 ft 484 kts 116°
2026-05-04 18:32 43.15947 23.82445 41289 ft 480 kts 116°
2026-05-04 18:33 43.12820 23.90586 41290 ft 481 kts 116°
2026-05-04 18:33 43.09693 23.98704 41290 ft 481 kts 116°
2026-05-04 18:34 43.06580 24.06763 41291 ft 481 kts 116°
2026-05-04 18:34 43.03461 24.14815 41291 ft 481 kts 116°
2026-05-04 18:35 43.00315 24.22911 41291 ft 481 kts 116°
2026-05-04 18:35 42.97189 24.30936 41290 ft 479 kts 116°
2026-05-04 18:36 42.94031 24.39017 41292 ft 479 kts 116°
2026-05-04 18:36 42.90900 24.47010 41292 ft 479 kts 116°
2026-05-04 18:37 42.87743 24.55042 41287 ft 478 kts 116°
2026-05-04 18:37 42.84616 24.62977 41287 ft 479 kts 116°
2026-05-04 18:38 42.81473 24.70931 41246 ft 479 kts 117°
2026-05-04 18:38 42.78285 24.78978 41246 ft 479 kts 117°
2026-05-04 18:39 42.75135 24.86906 41245 ft 479 kts 117°
2026-05-04 18:39 42.71937 24.94932 41246 ft 479 kts 117°
2026-05-04 18:40 42.68759 25.02885 41246 ft 479 kts 117°
2026-05-04 18:40 42.65574 25.10834 41246 ft 479 kts 117°
2026-05-04 18:41 42.62509 25.18464 41247 ft 479 kts 117°
2026-05-04 18:41 42.59290 25.26455 41247 ft 479 kts 117°
2026-05-04 18:42 42.56092 25.34371 41247 ft 479 kts 117°
2026-05-04 18:42 42.52891 25.42274 41247 ft 479 kts 117°
2026-05-04 18:43 42.49664 25.50219 41248 ft 479 kts 117°
2026-05-04 18:43 42.46452 25.58107 41248 ft 479 kts 117°
2026-05-04 18:44 42.43229 25.65996 41248 ft 479 kts 117°
2026-05-04 18:44 42.39998 25.73887 41247 ft 479 kts 117°
2026-05-04 18:45 42.36738 25.81827 41248 ft 478 kts 117°
2026-05-04 18:45 42.34047 25.88364 41248 ft 478 kts 117°
2026-05-04 18:46 42.30831 25.96157 41248 ft 478 kts 117°
2026-05-04 18:46 42.27034 26.05332 41248 ft 478 kts 117°
2026-05-04 18:47 42.23782 26.13168 41248 ft 480 kts 117°
2026-05-04 18:47 42.20508 26.21035 41133 ft 471 kts 117°
2026-05-04 18:47 42.19462 26.23543 40796 ft 468 kts 117°
2026-05-04 18:48 42.17317 26.28681 39462 ft 476 kts 117°
2026-05-04 18:48 42.15674 26.32612 38377 ft 483 kts 117°
2026-05-04 18:48 42.14030 26.36540 37544 ft 483 kts 117°
2026-05-04 18:48 42.12946 26.39124 37117 ft 481 kts 116°
2026-05-04 18:49 42.10755 26.44342 36243 ft 476 kts 116°
2026-05-04 18:49 42.09663 26.46938 35743 ft 475 kts 116°
2026-05-04 18:49 42.07505 26.52066 34591 ft 477 kts 116°
2026-05-04 18:49 42.06416 26.54651 33970 ft 479 kts 116°
2026-05-04 18:50 42.04236 26.59818 33140 ft 473 kts 116°
2026-05-04 18:50 42.03162 26.62360 32910 ft 476 kts 116°
2026-05-04 18:50 42.00943 26.67609 32369 ft 487 kts 117°
2026-05-04 18:50 41.99823 26.70252 32018 ft 486 kts 117°
2026-05-04 18:51 41.97598 26.75440 31199 ft 480 kts 119°
2026-05-04 18:51 41.96303 26.77930 30738 ft 479 kts 124°
2026-05-04 18:51 41.93583 26.82534 30123 ft 480 kts 126°
2026-05-04 18:51 41.91487 26.86032 29606 ft 483 kts 126°
2026-05-04 18:52 41.89366 26.89564 29046 ft 478 kts 126°
2026-05-04 18:52 41.87971 26.91885 28672 ft 473 kts 125°
2026-05-04 18:52 41.85258 26.96391 27957 ft 465 kts 125°
2026-05-04 18:52 41.83223 26.99770 27424 ft 461 kts 125°
2026-05-04 18:53 41.81221 27.03090 26899 ft 458 kts 125°
2026-05-04 18:53 41.79880 27.05312 26547 ft 456 kts 125°
2026-05-04 18:53 41.77228 27.09701 25862 ft 452 kts 125°
2026-05-04 18:53 41.75908 27.11884 25524 ft 450 kts 125°
2026-05-04 18:54 41.73938 27.15136 25012 ft 447 kts 124°
2026-05-04 18:54 41.71992 27.18348 24491 ft 445 kts 124°
2026-05-04 18:54 41.70045 27.21555 23974 ft 441 kts 124°
2026-05-04 18:54 41.68119 27.24726 23469 ft 437 kts 124°
2026-05-04 18:55 41.65559 27.28938 22801 ft 434 kts 124°
2026-05-04 18:55 41.61796 27.35114 21819 ft 428 kts 124°
2026-05-04 18:55 41.60531 27.37188 21487 ft 426 kts 124°
2026-05-04 18:56 41.58055 27.41244 20843 ft 422 kts 123°
2026-05-04 18:56 41.56822 27.43261 20523 ft 419 kts 123°
2026-05-04 18:56 41.54378 27.47256 19887 ft 414 kts 123°
2026-05-04 18:56 41.53159 27.49247 19569 ft 412 kts 123°
2026-05-04 18:57 41.50750 27.53176 18942 ft 408 kts 123°
2026-05-04 18:57 41.49543 27.55144 18628 ft 406 kts 123°
2026-05-04 18:57 41.47163 27.59019 18009 ft 403 kts 123°
2026-05-04 18:57 41.45969 27.60961 17699 ft 402 kts 123°
2026-05-04 18:58 41.43618 27.64783 17089 ft 399 kts 123°
2026-05-04 18:58 41.41843 27.67664 16633 ft 398 kts 124°
2026-05-04 18:58 41.40114 27.70468 16186 ft 396 kts 124°
2026-05-04 18:58 41.38942 27.72367 15882 ft 392 kts 124°
2026-05-04 18:59 41.36680 27.76022 15297 ft 375 kts 123°
2026-05-04 18:59 41.35579 27.77800 15013 ft 367 kts 123°
2026-05-04 18:59 41.33447 27.81244 14463 ft 352 kts 123°
2026-05-04 18:59 41.32420 27.82901 14198 ft 345 kts 123°
2026-05-04 19:00 41.30413 27.86140 13680 ft 334 kts 123°
2026-05-04 19:00 41.29440 27.87711 13427 ft 328 kts 123°
2026-05-04 19:00 41.27533 27.90784 12934 ft 319 kts 122°
2026-05-04 19:00 41.26589 27.92306 12691 ft 315 kts 122°
2026-05-04 19:01 41.24738 27.95285 12212 ft 307 kts 122°
2026-05-04 19:01 41.23835 27.96738 11989 ft 304 kts 122°
2026-05-04 19:01 41.22048 27.99609 11543 ft 298 kts 122°
2026-05-04 19:01 41.20729 28.01727 11204 ft 295 kts 122°
2026-05-04 19:02 41.19411 28.03844 10863 ft 295 kts 122°
2026-05-04 19:02 41.18547 28.05229 10640 ft 295 kts 122°
2026-05-04 19:02 41.16790 28.08043 10185 ft 295 kts 122°
2026-05-04 19:02 41.15915 28.09446 9954 ft 295 kts 122°
2026-05-04 19:03 41.14155 28.12260 9429 ft 295 kts 123°
2026-05-04 19:03 41.13282 28.13656 9169 ft 294 kts 123°
2026-05-04 19:03 41.11548 28.16425 8670 ft 291 kts 123°
2026-05-04 19:03 41.10679 28.17810 8449 ft 289 kts 123°
2026-05-04 19:04 41.08969 28.20537 8017 ft 285 kts 123°
2026-05-04 19:04 41.07705 28.22552 7692 ft 283 kts 124°
2026-05-04 19:04 41.06434 28.24578 7363 ft 281 kts 124°
2026-05-04 19:04 41.05183 28.26568 7039 ft 279 kts 123°
2026-05-04 19:05 41.03941 28.28543 6720 ft 278 kts 122°
2026-05-04 19:05 41.03117 28.29854 6507 ft 277 kts 123°
2026-05-04 19:05 41.01457 28.32493 6077 ft 276 kts 123°
2026-05-04 19:05 41.00218 28.34461 5756 ft 275 kts 123°
2026-05-04 19:06 40.98981 28.36424 5433 ft 275 kts 123°
2026-05-04 19:06 40.98180 28.37693 5216 ft 275 kts 123°
2026-05-04 19:06 40.96775 28.40465 5010 ft 259 kts 112°
2026-05-04 19:06 40.96190 28.41825 5004 ft 253 kts 112°
2026-05-04 19:07 40.95039 28.44527 5005 ft 252 kts 112°
2026-05-04 19:07 40.94457 28.45882 5005 ft 252 kts 112°
2026-05-04 19:07 40.93290 28.48591 5005 ft 252 kts 112°
2026-05-04 19:07 40.92713 28.49927 5005 ft 252 kts 112°
2026-05-04 19:08 40.91547 28.52626 5006 ft 252 kts 112°
2026-05-04 19:08 40.90956 28.53994 5006 ft 252 kts 112°
2026-05-04 19:08 40.89803 28.56689 5001 ft 250 kts 107°
2026-05-04 19:08 40.89445 28.58836 4989 ft 232 kts 78°
2026-05-04 19:09 40.89735 28.60923 4995 ft 225 kts 65°
2026-05-04 19:09 40.90037 28.62251 4995 ft 223 kts 63°
2026-05-04 19:09 40.90694 28.64850 4995 ft 223 kts 62°
2026-05-04 19:09 40.91031 28.66150 4995 ft 223 kts 63°
2026-05-04 19:10 40.91589 28.68079 4990 ft 217 kts 52°
2026-05-04 19:10 40.92571 28.69475 4994 ft 206 kts 29°
2026-05-04 19:10 40.94206 28.70810 4995 ft 204 kts 25°
2026-05-04 19:10 40.95020 28.71422 4995 ft 204 kts 25°
2026-05-04 19:11 40.96244 28.72327 4992 ft 198 kts 24°
2026-05-04 19:11 40.97443 28.73104 4991 ft 191 kts 12°
2026-05-04 19:11 40.99018 28.73280 4994 ft 189 kts 359°
2026-05-04 19:11 40.99894 28.73274 4994 ft 188 kts 359°
2026-05-04 19:12 41.01598 28.73247 4993 ft 188 kts 359°
2026-05-04 19:12 41.04187 28.73205 4614 ft 187 kts 359°
2026-05-04 19:12 41.05021 28.73190 4456 ft 187 kts 359°
2026-05-04 19:13 41.06768 28.73158 4122 ft 189 kts 358°
2026-05-04 19:13 41.08017 28.73134 3904 ft 184 kts 358°
2026-05-04 19:13 41.09334 28.73109 3641 ft 174 kts 358°
2026-05-04 19:13 41.10160 28.73094 3484 ft 168 kts 358°
2026-05-04 19:14 41.11779 28.73062 3190 ft 160 kts 358°
2026-05-04 19:14 41.12518 28.73048 3055 ft 158 kts 358°
2026-05-04 19:14 41.13968 28.73018 2784 ft 157 kts 358°
2026-05-04 19:14 41.14667 28.73005 2646 ft 144 kts 358°
2026-05-04 19:15 41.16003 28.72979 2394 ft 141 kts 356°
2026-05-04 19:15 41.16668 28.72966 2265 ft 141 kts 356°
2026-05-04 19:15 41.17988 28.72938 2004 ft 143 kts 355°
2026-05-04 19:15 41.18635 28.72925 1875 ft 144 kts 355°
2026-05-04 19:16 41.19972 28.72900 1601 ft 142 kts 355°
2026-05-04 19:16 41.20921 28.72882 1401 ft 130 kts 355°
2026-05-04 19:16 41.21809 28.72863 1240 ft 126 kts 354°
2026-05-04 19:16 41.22697 28.72846 1058 ft 128 kts 355°
2026-05-04 19:17 41.23579 28.72831 856 ft 128 kts 354°
2026-05-04 19:17 41.24175 28.72818 746 ft 128 kts 355°
2026-05-04 19:17 41.25372 28.72793 523 ft 130 kts 355°
2026-05-04 19:17 41.25978 28.72780 417 ft 131 kts 355°
2026-05-04 19:18 41.27167 28.72759 302 ft 118 kts 356°
2026-05-04 19:18 41.27647 28.72743 281 ft 90 kts 359°
2026-05-04 19:18 41.28228 28.72748 263 ft 46 kts 10°
2026-05-04 19:18 41.28381 28.72827 259 ft 25 kts 27°
2026-05-04 19:19 41.28396 28.72960 258 ft 15 kts 174°
2026-05-04 19:19 41.28325 28.72965 260 ft 15 kts 178°
2026-05-04 19:19 41.28208 28.72967 263 ft 17 kts 179°
2026-05-04 19:19 41.28083 28.72970 267 ft 18 kts 179°
2026-05-04 19:20 41.27915 28.72975 271 ft 18 kts 179°
2026-05-04 19:20 41.27787 28.72978 275 ft 18 kts 178°
2026-05-04 19:20 41.27664 28.72980 280 ft 17 kts 180°
2026-05-04 19:20 41.27543 28.72981 285 ft 17 kts 180°
2026-05-04 19:21 41.27426 28.72982 289 ft 16 kts 180°
2026-05-04 19:21 41.27351 28.72983 292 ft 16 kts 179°
2026-05-04 19:21 41.27207 28.72986 298 ft 15 kts 179°
2026-05-04 19:21 41.27135 28.72989 301 ft 15 kts 178°
2026-05-04 19:22 41.27028 28.72998 304 ft 6 kts 170°
2026-05-04 19:22 41.26989 28.73007 305 ft 11 kts 169°
2026-05-04 19:22 41.26946 28.73173 304 ft 20 kts 90°
2026-05-04 19:22 41.26947 28.73303 303 ft 21 kts 89°
2026-05-04 19:23 41.26950 28.73593 303 ft 24 kts 89°
2026-05-04 19:23 41.26952 28.73733 303 ft 23 kts 89°
2026-05-04 19:23 41.26812 28.73868 304 ft 18 kts 178°
2026-05-04 19:23 41.26754 28.73871 304 ft 6 kts 178°
2026-05-04 19:24 41.26716 28.73829 304 ft 8 kts 263°
2026-05-04 19:24 41.26714 28.73786 304 ft 3 kts 267°
2026-05-04 19:24 41.26713 28.73767 304 ft 2 kts 269°
2026-05-04 19:24 41.26713 28.73763 304 ft 0 kts 269°
2026-05-04 19:25 41.26713 28.73762 304 ft 0 kts 269°